START_TIME,STEP,MOV.,A46,t_acc.,A13,t_acc.,M47,t_acc.,A17,t_acc.,A28,t_acc.,M38,t_acc.
1979-03-07 18:00:23.300 ,7,0,,0,3.,4.8,0.,4.8,,0,0.,4.8,0.,4.8
1979-03-07 18:00:28.100 ,7,0,,0,4.,4.8,0.,4.8,,0,0.,4.8,0.,4.8
1979-03-07 18:00:32.900 ,7,0,,0,2.,4.8,0.,4.8,,0,0.,4.8,0.,4.8
1979-03-07 18:00:37.700 ,7,0,,0,0.,4.8,0.,4.8,,0,0.,4.8,0.,4.8
1979-03-07 18:00:42.500 ,7,0,,0,0.,4.8,0.,4.8,,0,0.,4.8,0.,4.8
1979-03-07 18:00:47.300 ,6,0,,0,0.,4.8,0.,4.8,,0,0.,4.8,0.,4.8
1979-03-07 18:00:52.100 ,6,0,,0,0.,4.8,0.,4.8,,0,0.,4.8,0.,4.8
1979-03-07 18:00:56.900 ,6,0,,0,0.,4.8,0.,4.8,,0,0.,4.8,1.,4.8
1979-03-07 18:01:01.700 ,6,0,,0,1.,4.8,0.,4.8,,0,0.,4.8,1.,4.8
1979-03-07 18:01:06.500 ,6,0,,0,3.,4.8,0.,4.8,,0,0.,4.8,1.,4.8
1979-03-07 18:01:11.300 ,5,0,,0,2.,4.8,1.,4.8,,0,0.,4.8,1.,4.8
1979-03-07 18:01:16.100 ,5,0,,0,3.,4.8,0.,4.8,,0,0.,4.8,0.,4.8
1979-03-07 18:01:20.900 ,5,0,,0,0.,4.8,0.,4.8,,0,0.,4.8,3.,4.8
1979-03-07 18:01:25.700 ,5,0,,0,0.,4.8,0.,4.8,,0,0.,4.8,0.,4.8
1979-03-07 18:01:30.500 ,5,0,,0,0.,4.8,0.,4.8,,0,0.,4.8,0.,4.8
1979-03-07 18:01:35.300 ,4,0,,0,0.,4.8,0.,4.8,,0,0.,4.8,1.,4.8
1979-03-07 18:01:40.100 ,4,0,,0,0.,4.8,0.,4.8,,0,0.,4.8,0.,4.8
1979-03-07 18:01:44.900 ,4,0,,0,0.,4.8,0.,4.8,,0,0.,4.8,0.,4.8
1979-03-07 18:01:49.700 ,4,0,,0,5.,4.8,2.,4.8,,0,0.,4.8,0.,4.8
1979-03-07 18:01:54.500 ,4,0,,0,1.,4.8,1.,4.8,,0,0.,4.8,0.,4.8
1979-03-07 18:01:59.300 ,3,0,,0,4.,4.8,0.,4.8,,0,0.,4.8,2.,4.8
1979-03-07 18:02:04.100 ,3,0,,0,8.,4.8,2.,4.8,,0,0.,4.8,0.,4.8
1979-03-07 18:02:08.900 ,3,0,,0,1.,4.8,0.,4.8,,0,0.,4.8,0.,4.8
1979-03-07 18:02:13.700 ,3,0,,0,0.,4.8,0.,4.8,,0,0.,4.8,1.,4.8
1979-03-07 18:02:18.500 ,3,0,,0,0.,4.8,0.,4.8,,0,0.,4.8,2.,4.8
1979-03-07 18:02:23.300 ,2,0,,0,0.,4.8,0.,4.8,,0,0.,4.8,0.,4.8
1979-03-07 18:02:28.100 ,2,0,,0,0.,4.8,0.,4.8,,0,0.,4.8,2.,4.8
1979-03-07 18:02:32.900 ,2,0,,0,0.,4.8,0.,4.8,,0,0.,4.8,1.,4.8
1979-03-07 18:02:37.700 ,2,0,,0,2.,4.8,0.,4.8,,0,0.,4.8,1.,4.8
1979-03-07 18:02:42.500 ,2,0,,0,4.,4.8,0.,4.8,,0,0.,4.8,0.,4.8
1979-03-07 18:02:47.300 ,1,0,,0,2.,4.8,0.,4.8,,0,0.,4.8,1.,4.8
1979-03-07 18:02:52.100 ,1,0,,0,3.,4.8,0.,4.8,,0,0.,4.8,1.,4.8
1979-03-07 18:02:56.900 ,1,0,,0,2.,4.8,0.,4.8,,0,0.,4.8,0.,4.8
1979-03-07 18:03:01.700 ,1,0,,0,0.,4.8,0.,4.8,,0,0.,4.8,0.,4.8
1979-03-07 18:03:06.500 ,1,0,,0,0.,4.8,0.,4.8,,0,0.,4.8,0.,4.8
1979-03-07 18:03:11.300 ,0,0,,0,0.,4.8,0.,4.8,,0,0.,4.8,1.,4.8
1979-03-07 18:03:16.100 ,0,0,,0,0.,4.8,0.,4.8,,0,0.,4.8,0.,4.8
1979-03-07 18:03:20.900 ,0,0,,0,2.,4.8,0.,4.8,,0,0.,4.8,0.,4.8
1979-03-07 18:03:25.700 ,0,0,,0,1.,4.8,0.,4.8,,0,0.,4.8,0.,4.8
1979-03-07 18:03:30.500 ,0,0,,0,0.,4.8,0.,4.8,,0,0.,4.8,0.,4.8
1979-03-07 18:03:35.300 ,0,0,,0,3.,4.8,0.,4.8,,0,0.,4.8,0.,4.8
1979-03-07 18:03:40.100 ,0,0,,0,1.,4.8,0.,4.8,,0,0.,4.8,1.,4.8
1979-03-07 18:03:44.900 ,0,0,,0,0.,4.8,0.,4.8,,0,0.,4.8,0.,4.8
1979-03-07 18:03:49.700 ,0,0,,0,0.,4.8,0.,4.8,,0,0.,4.8,1.,4.8
1979-03-07 18:03:54.500 ,0,0,,0,0.,4.8,0.,4.8,,0,0.,4.8,1.,4.8
1979-03-07 18:03:59.300 ,1,0,,0,0.,4.8,0.,4.8,,0,0.,4.8,0.,4.8
1979-03-07 18:04:04.100 ,1,0,,0,0.,4.8,0.,4.8,,0,0.,4.8,0.,4.8
1979-03-07 18:04:08.900 ,1,0,,0,0.,4.8,0.,4.8,,0,0.,4.8,0.,4.8
1979-03-07 18:04:13.700 ,1,0,,0,2.,4.8,0.,4.8,,0,0.,4.8,0.,4.8
1979-03-07 18:04:18.500 ,1,0,,0,0.,4.8,0.,4.8,,0,0.,4.8,2.,4.8
1979-03-07 18:04:23.300 ,2,0,,0,0.,4.8,0.,4.8,,0,0.,4.8,1.,4.8
1979-03-07 18:04:28.100 ,2,0,,0,0.,4.8,0.,4.8,,0,0.,4.8,0.,4.8
1979-03-07 18:04:32.900 ,2,0,,0,3.,4.8,0.,4.8,,0,0.,4.8,0.,4.8
1979-03-07 18:04:37.700 ,2,0,,0,0.,4.8,0.,4.8,,0,0.,4.8,0.,4.8
1979-03-07 18:04:42.500 ,2,0,,0,0.,4.8,0.,4.8,,0,0.,4.8,2.,4.8
1979-03-07 18:04:47.300 ,3,0,,0,0.,4.8,0.,4.8,,0,0.,4.8,2.,4.8
1979-03-07 18:04:52.100 ,3,0,,0,0.,4.8,0.,4.8,,0,0.,4.8,2.,4.8
1979-03-07 18:04:56.900 ,3,0,,0,0.,4.8,0.,4.8,,0,0.,4.8,2.,4.8
1979-03-07 18:05:01.700 ,3,0,,0,1.,4.8,0.,4.8,,0,0.,4.8,2.,4.8
1979-03-07 18:05:06.500 ,3,0,,0,2.,4.8,0.,4.8,,0,0.,4.8,1.,4.8
1979-03-07 18:05:11.300 ,4,0,,0,6.,4.8,0.,4.8,,0,0.,4.8,2.,4.8
1979-03-07 18:05:16.100 ,4,0,,0,2.,4.8,0.,4.8,,0,0.,4.8,1.,4.8
1979-03-07 18:05:20.900 ,4,0,,0,0.,4.8,0.,4.8,,0,0.,4.8,0.,4.8
1979-03-07 18:05:25.700 ,4,0,,0,0.,4.8,0.,4.8,,0,0.,4.8,2.,4.8
1979-03-07 18:05:30.500 ,4,0,,0,0.,4.8,0.,4.8,,0,0.,4.8,0.,4.8
1979-03-07 18:05:35.300 ,5,0,,0,0.,4.8,0.,4.8,,0,0.,4.8,0.,4.8
1979-03-07 18:05:40.100 ,5,0,,0,0.,4.8,0.,4.8,,0,0.,4.8,0.,4.8
1979-03-07 18:05:44.900 ,5,0,,0,1.,4.8,0.,4.8,,0,0.,4.8,1.,4.8
1979-03-07 18:05:49.700 ,5,0,,0,2.,4.8,1.,4.8,,0,0.,4.8,1.,4.8
1979-03-07 18:05:54.500 ,5,0,,0,2.,4.8,0.,4.8,,0,0.,4.8,0.,4.8
1979-03-07 18:05:59.300 ,6,0,,0,1.,4.8,1.,4.8,,0,0.,4.8,0.,4.8
1979-03-07 18:06:04.100 ,6,0,,0,1.,4.8,0.,4.8,,0,0.,4.8,1.,4.8
1979-03-07 18:06:08.900 ,6,0,,0,0.,4.8,0.,4.8,,0,0.,4.8,0.,4.8
1979-03-07 18:06:13.700 ,6,0,,0,0.,4.8,0.,4.8,,0,0.,4.8,2.,4.8
1979-03-07 18:06:18.500 ,6,0,,0,0.,4.8,0.,4.8,,0,0.,4.8,1.,4.8
1979-03-07 18:06:23.300 ,7,0,,0,0.,4.8,0.,4.8,,0,0.,4.8,1.,4.8
1979-03-07 18:06:28.100 ,7,0,,0,0.,4.8,0.,4.8,,0,0.,4.8,0.,4.8
1979-03-07 18:06:32.900 ,7,0,,0,0.,4.8,0.,4.8,,0,0.,4.8,0.,4.8
1979-03-07 18:06:37.700 ,7,0,,0,2.,4.8,0.,4.8,,0,0.,4.8,0.,4.8
1979-03-07 18:06:42.500 ,7,0,,0,5.,4.8,0.,4.8,,0,0.,4.8,0.,4.8
1979-03-07 18:06:47.300 ,7,0,,0,4.,4.8,0.,4.8,,0,0.,4.8,0.,4.8
1979-03-07 18:06:52.100 ,7,0,,0,6.,4.8,0.,4.8,,0,0.,4.8,0.,4.8
1979-03-07 18:06:56.900 ,7,0,,0,5.,4.8,0.,4.8,,0,0.,4.8,0.,4.8
1979-03-07 18:07:01.700 ,7,0,,0,0.,4.8,0.,4.8,,0,0.,4.8,0.,4.8
1979-03-07 18:07:06.500 ,7,0,,0,1.,4.8,0.,4.8,,0,0.,4.8,0.,4.8
1979-03-07 18:07:11.300 ,6,0,,0,0.,4.8,0.,4.8,,0,0.,4.8,0.,4.8
1979-03-07 18:07:16.100 ,6,0,,0,0.,4.8,0.,4.8,,0,0.,4.8,0.,4.8
1979-03-07 18:07:20.900 ,6,0,,0,1.,4.8,0.,4.8,,0,0.,4.8,1.,4.8
1979-03-07 18:07:25.700 ,6,0,,0,1.,4.8,0.,4.8,,0,0.,4.8,0.,4.8
1979-03-07 18:07:30.500 ,6,0,,0,1.,4.8,0.,4.8,,0,0.,4.8,2.,4.8
1979-03-07 18:07:35.300 ,5,0,,0,2.,4.8,1.,4.8,,0,0.,4.8,0.,4.8
1979-03-07 18:07:40.100 ,5,0,,0,1.,4.8,0.,4.8,,0,0.,4.8,0.,4.8
1979-03-07 18:07:44.900 ,5,0,,0,1.,4.8,1.,4.8,,0,0.,4.8,0.,4.8
1979-03-07 18:07:49.700 ,5,0,,0,0.,4.8,0.,4.8,,0,0.,4.8,1.,4.8
1979-03-07 18:07:54.500 ,5,0,,0,0.,4.8,0.,4.8,,0,0.,4.8,0.,4.8
1979-03-07 18:07:59.300 ,4,0,,0,0.,4.8,0.,4.8,,0,0.,4.8,0.,4.8
1979-03-07 18:08:04.100 ,4,0,,0,0.,4.8,0.,4.8,,0,0.,4.8,1.,4.8
1979-03-07 18:08:08.900 ,4,0,,0,1.,4.8,0.,4.8,,0,0.,4.8,0.,4.8
1979-03-07 18:08:13.700 ,4,0,,0,2.,4.8,0.,4.8,,0,0.,4.8,0.,4.8
1979-03-07 18:08:18.500 ,4,0,,0,2.,4.8,0.,4.8,,0,0.,4.8,2.,4.8
1979-03-07 18:08:23.300 ,3,0,,0,2.,4.8,0.,4.8,,0,0.,4.8,1.,4.8
1979-03-07 18:08:28.100 ,3,0,,0,2.,4.8,0.,4.8,,0,0.,4.8,0.,4.8
1979-03-07 18:08:32.900 ,3,0,,0,2.,4.8,0.,4.8,,0,0.,4.8,0.,4.8
1979-03-07 18:08:37.700 ,3,0,,0,0.,4.8,0.,4.8,,0,0.,4.8,1.,4.8
1979-03-07 18:08:42.500 ,3,0,,0,0.,4.8,0.,4.8,,0,0.,4.8,1.,4.8
1979-03-07 18:08:47.300 ,2,0,,0,0.,4.8,0.,4.8,,0,0.,4.8,1.,4.8
1979-03-07 18:08:52.100 ,2,0,,0,0.,4.8,0.,4.8,,0,0.,4.8,1.,4.8
1979-03-07 18:08:56.900 ,2,0,,0,0.,4.8,0.,4.8,,0,0.,4.8,0.,4.8
1979-03-07 18:09:01.700 ,2,0,,0,1.,4.8,0.,4.8,,0,0.,4.8,0.,4.8
1979-03-07 18:09:06.500 ,2,0,,0,0.,4.8,0.,4.8,,0,0.,4.8,0.,4.8
1979-03-07 18:09:11.300 ,1,0,,0,3.,4.8,1.,4.8,,0,0.,4.8,2.,4.8
1979-03-07 18:09:16.100 ,1,0,,0,2.,4.8,0.,4.8,,0,0.,4.8,0.,4.8
1979-03-07 18:09:20.900 ,1,0,,0,0.,4.8,0.,4.8,,0,0.,4.8,0.,4.8
1979-03-07 18:09:25.700 ,1,0,,0,0.,4.8,0.,4.8,,0,0.,4.8,0.,4.8
1979-03-07 18:09:30.500 ,1,0,,0,0.,4.8,0.,4.8,,0,0.,4.8,0.,4.8
1979-03-07 18:09:35.300 ,0,0,,0,0.,4.8,0.,4.8,,0,0.,4.8,1.,4.8
1979-03-07 18:09:40.100 ,0,0,,0,0.,4.8,0.,4.8,,0,0.,4.8,3.,4.8
1979-03-07 18:09:44.900 ,0,0,,0,0.,4.8,0.,4.8,,0,0.,4.8,1.,4.8
1979-03-07 18:09:49.700 ,0,0,,0,2.,4.8,0.,4.8,,0,0.,4.8,0.,4.8
1979-03-07 18:09:54.500 ,0,0,,0,3.,4.8,0.,4.8,,0,0.,4.8,0.,4.8
1979-03-07 18:09:59.300 ,0,0,,0,1.,4.8,0.,4.8,,0,0.,4.8,1.,4.8
1979-03-07 18:10:04.100 ,0,0,,0,1.,4.8,0.,4.8,,0,0.,4.8,3.,4.8
1979-03-07 18:10:08.900 ,0,0,,0,1.,4.8,0.,4.8,,0,0.,4.8,0.,4.8
1979-03-07 18:10:13.700 ,0,0,,0,0.,4.8,0.,4.8,,0,0.,4.8,0.,4.8
1979-03-07 18:10:18.500 ,0,0,,0,0.,4.8,0.,4.8,,0,0.,4.8,1.,4.8
1979-03-07 18:10:23.300 ,1,0,,0,0.,4.8,0.,4.8,,0,0.,4.8,0.,4.8
1979-03-07 18:10:28.100 ,1,0,,0,0.,4.8,0.,4.8,,0,0.,4.8,0.,4.8
1979-03-07 18:10:32.900 ,1,0,,0,0.,4.8,0.,4.8,,0,0.,4.8,0.,4.8
1979-03-07 18:10:37.700 ,1,0,,0,2.,4.8,0.,4.8,,0,0.,4.8,0.,4.8
1979-03-07 18:10:42.500 ,1,0,,0,3.,4.8,0.,4.8,,0,0.,4.8,0.,4.8
1979-03-07 18:10:47.300 ,2,0,,0,2.,4.8,0.,4.8,,0,0.,4.8,0.,4.8
1979-03-07 18:10:52.100 ,2,0,,0,2.,4.8,0.,4.8,,0,0.,4.8,1.,4.8
1979-03-07 18:10:56.900 ,2,0,,0,1.,4.8,0.,4.8,,0,0.,4.8,0.,4.8
1979-03-07 18:11:01.700 ,2,0,,0,0.,4.8,0.,4.8,,0,0.,4.8,0.,4.8
1979-03-07 18:11:06.500 ,2,0,,0,0.,4.8,0.,4.8,,0,0.,4.8,1.,4.8
1979-03-07 18:11:11.300 ,3,0,,0,,0,,0,,0,,0,,0
1979-03-07 18:11:16.100 ,3,0,,0,0.,4.8,0.,4.8,,0,0.,4.8,0.,4.8
1979-03-07 18:11:20.900 ,3,0,,0,1.,4.8,0.,4.8,,0,0.,4.8,1.,4.8
1979-03-07 18:11:25.700 ,3,0,,0,1.,4.8,1.,4.8,,0,0.,4.8,1.,4.8
1979-03-07 18:11:30.500 ,3,0,,0,0.,4.8,0.,4.8,,0,0.,4.8,1.,4.8
1979-03-07 18:11:35.300 ,4,0,,0,1.,4.8,0.,4.8,,0,0.,4.8,0.,4.8
1979-03-07 18:11:40.100 ,4,0,,0,1.,4.8,1.,4.8,,0,0.,4.8,1.,4.8
1979-03-07 18:11:44.900 ,4,0,,0,1.,4.8,0.,4.8,,0,0.,4.8,0.,4.8
1979-03-07 18:11:49.700 ,4,0,,0,0.,4.8,0.,4.8,,0,0.,4.8,0.,4.8
1979-03-07 18:11:54.500 ,4,0,,0,0.,4.8,0.,4.8,,0,0.,4.8,0.,4.8
1979-03-07 18:11:59.300 ,5,0,,0,0.,4.8,0.,4.8,,0,0.,4.8,0.,4.8
1979-03-07 18:12:04.100 ,5,0,,0,0.,4.8,0.,4.8,,0,0.,4.8,0.,4.8
1979-03-07 18:12:08.900 ,5,0,,0,0.,4.8,0.,4.8,,0,0.,4.8,1.,4.8
1979-03-07 18:12:13.700 ,5,0,,0,2.,4.8,0.,4.8,,0,0.,4.8,1.,4.8
1979-03-07 18:12:18.500 ,5,0,,0,1.,4.8,0.,4.8,,0,0.,4.8,1.,4.8
1979-03-07 18:12:23.300 ,6,0,,0,3.,4.8,0.,4.8,,0,0.,4.8,0.,4.8
1979-03-07 18:12:28.100 ,6,0,,0,0.,4.8,0.,4.8,,0,0.,4.8,0.,4.8
1979-03-07 18:12:32.900 ,6,0,,0,0.,4.8,0.,4.8,,0,0.,4.8,0.,4.8
1979-03-07 18:12:37.700 ,6,0,,0,0.,4.8,0.,4.8,,0,0.,4.8,1.,4.8
1979-03-07 18:12:42.500 ,6,0,,0,0.,4.8,0.,4.8,,0,0.,4.8,1.,4.8
1979-03-07 18:12:47.300 ,7,0,,0,0.,4.8,0.,4.8,,0,0.,4.8,0.,4.8
1979-03-07 18:12:52.100 ,7,0,,0,0.,4.8,0.,4.8,,0,0.,4.8,0.,4.8
1979-03-07 18:12:56.900 ,7,0,,0,1.,4.8,0.,4.8,,0,0.,4.8,0.,4.8
1979-03-07 18:13:01.700 ,7,0,,0,2.,4.8,0.,4.8,,0,0.,4.8,0.,4.8
1979-03-07 18:13:06.500 ,7,0,,0,6.,4.8,0.,4.8,,0,0.,4.8,0.,4.8
1979-03-07 18:13:11.300 ,7,0,,0,1.,4.8,0.,4.8,,0,0.,4.8,0.,4.8
1979-03-07 18:13:16.100 ,7,0,,0,6.,4.8,0.,4.8,,0,0.,4.8,0.,4.8
1979-03-07 18:13:20.900 ,7,0,,0,2.,4.8,0.,4.8,,0,0.,4.8,0.,4.8
1979-03-07 18:13:25.700 ,7,0,,0,0.,4.8,0.,4.8,,0,0.,4.8,0.,4.8
1979-03-07 18:13:30.500 ,7,0,,0,0.,4.8,0.,4.8,,0,0.,4.8,0.,4.8
1979-03-07 18:13:35.300 ,6,0,,0,0.,4.8,0.,4.8,,0,0.,4.8,0.,4.8
1979-03-07 18:13:40.100 ,6,0,,0,0.,4.8,0.,4.8,,0,0.,4.8,0.,4.8
1979-03-07 18:13:44.900 ,6,0,,0,0.,4.8,0.,4.8,,0,0.,4.8,1.,4.8
1979-03-07 18:13:49.700 ,6,0,,0,0.,4.8,0.,4.8,,0,0.,4.8,0.,4.8
1979-03-07 18:13:54.500 ,6,0,,0,1.,4.8,0.,4.8,,0,0.,4.8,0.,4.8
1979-03-07 18:13:59.300 ,5,0,,0,0.,4.8,0.,4.8,,0,0.,4.8,0.,4.8
1979-03-07 18:14:04.100 ,5,0,,0,1.,4.8,0.,4.8,,0,0.,4.8,1.,4.8
1979-03-07 18:14:08.900 ,5,0,,0,0.,4.8,0.,4.8,,0,0.,4.8,1.,4.8
1979-03-07 18:14:13.700 ,5,0,,0,0.,4.8,0.,4.8,,0,0.,4.8,0.,4.8
1979-03-07 18:14:18.500 ,5,0,,0,0.,4.8,0.,4.8,,0,0.,4.8,1.,4.8
1979-03-07 18:14:23.300 ,4,0,,0,0.,4.8,0.,4.8,,0,0.,4.8,1.,4.8
1979-03-07 18:14:28.100 ,4,0,,0,0.,4.8,0.,4.8,,0,0.,4.8,0.,4.8
1979-03-07 18:14:32.900 ,4,0,,0,1.,4.8,0.,4.8,,0,0.,4.8,2.,4.8
1979-03-07 18:14:37.700 ,4,0,,0,1.,4.8,0.,4.8,,0,0.,4.8,0.,4.8
1979-03-07 18:14:42.500 ,4,0,,0,2.,4.8,0.,4.8,,0,0.,4.8,0.,4.8
1979-03-07 18:14:47.300 ,3,0,,0,3.,4.8,1.,4.8,,0,0.,4.8,0.,4.8
1979-03-07 18:14:52.100 ,3,0,,0,0.,4.8,0.,4.8,,0,0.,4.8,0.,4.8
1979-03-07 18:14:56.900 ,3,0,,0,5.,4.8,0.,4.8,,0,0.,4.8,2.,4.8
1979-03-07 18:15:01.700 ,3,0,,0,0.,4.8,0.,4.8,,0,0.,4.8,0.,4.8
1979-03-07 18:15:06.500 ,3,0,,0,0.,4.8,0.,4.8,,0,0.,4.8,0.,4.8
1979-03-07 18:15:11.300 ,2,0,,0,0.,4.8,0.,4.8,,0,0.,4.8,5.,4.8
1979-03-07 18:15:16.100 ,2,0,,0,0.,4.8,0.,4.8,,0,0.,4.8,1.,4.8
1979-03-07 18:15:20.900 ,2,0,,0,0.,4.8,0.,4.8,,0,0.,4.8,0.,4.8
1979-03-07 18:15:25.700 ,2,0,,0,0.,4.8,0.,4.8,,0,0.,4.8,0.,4.8
1979-03-07 18:15:30.500 ,2,0,,0,2.,4.8,0.,4.8,,0,0.,4.8,2.,4.8
1979-03-07 18:15:35.300 ,1,0,,0,2.,4.8,1.,4.8,,0,0.,4.8,1.,4.8
1979-03-07 18:15:40.100 ,1,0,,0,2.,4.8,0.,4.8,,0,0.,4.8,2.,4.8
1979-03-07 18:15:44.900 ,1,0,,0,1.,4.8,0.,4.8,,0,0.,4.8,0.,4.8
1979-03-07 18:15:49.700 ,1,0,,0,0.,4.8,0.,4.8,,0,0.,4.8,0.,4.8
1979-03-07 18:15:54.500 ,1,0,,0,0.,4.8,0.,4.8,,0,0.,4.8,1.,4.8
1979-03-07 18:15:59.300 ,0,0,,0,0.,4.8,0.,4.8,,0,0.,4.8,0.,4.8
1979-03-07 18:16:04.100 ,0,0,,0,0.,4.8,0.,4.8,,0,0.,4.8,1.,4.8
1979-03-07 18:16:08.900 ,0,0,,0,0.,4.8,0.,4.8,,0,0.,4.8,1.,4.8
1979-03-07 18:16:13.700 ,0,0,,0,1.,4.8,0.,4.8,,0,0.,4.8,0.,4.8
1979-03-07 18:16:18.500 ,0,0,,0,1.,4.8,0.,4.8,,0,0.,4.8,0.,4.8
1979-03-07 18:16:23.300 ,0,0,,0,0.,4.8,0.,4.8,,0,0.,4.8,1.,4.8
1979-03-07 18:16:28.100 ,0,0,,0,1.,4.8,0.,4.8,,0,0.,4.8,1.,4.8
1979-03-07 18:16:32.900 ,0,0,,0,0.,4.8,0.,4.8,,0,0.,4.8,2.,4.8
1979-03-07 18:16:37.700 ,0,0,,0,0.,4.8,0.,4.8,,0,0.,4.8,0.,4.8
1979-03-07 18:16:42.500 ,0,0,,0,0.,4.8,0.,4.8,,0,0.,4.8,1.,4.8
1979-03-07 18:16:47.300 ,1,0,,0,0.,4.8,0.,4.8,,0,0.,4.8,0.,4.8
1979-03-07 18:16:52.100 ,1,0,,0,0.,4.8,0.,4.8,,0,0.,4.8,1.,4.8
1979-03-07 18:16:56.900 ,1,0,,0,0.,4.8,0.,4.8,,0,0.,4.8,1.,4.8
1979-03-07 18:17:01.700 ,1,0,,0,0.,4.8,0.,4.8,,0,0.,4.8,0.,4.8
1979-03-07 18:17:06.500 ,1,0,,0,0.,4.8,0.,4.8,,0,0.,4.8,0.,4.8
1979-03-07 18:17:11.300 ,2,0,,0,0.,4.8,0.,4.8,,0,0.,4.8,0.,4.8
1979-03-07 18:17:16.100 ,2,0,,0,3.,4.8,0.,4.8,,0,0.,4.8,1.,4.8
1979-03-07 18:17:20.900 ,2,0,,0,1.,4.8,0.,4.8,,0,0.,4.8,0.,4.8
1979-03-07 18:17:25.700 ,2,0,,0,0.,4.8,0.,4.8,,0,0.,4.8,0.,4.8
1979-03-07 18:17:30.500 ,2,0,,0,0.,4.8,0.,4.8,,0,0.,4.8,1.,4.8
1979-03-07 18:17:35.300 ,3,0,,0,0.,4.8,0.,4.8,,0,0.,4.8,0.,4.8
1979-03-07 18:17:40.100 ,3,0,,0,0.,4.8,0.,4.8,,0,0.,4.8,1.,4.8
1979-03-07 18:17:44.900 ,3,0,,0,1.,4.8,0.,4.8,,0,0.,4.8,2.,4.8
1979-03-07 18:17:49.700 ,3,0,,0,2.,4.8,0.,4.8,,0,0.,4.8,2.,4.8
1979-03-07 18:17:54.500 ,3,0,,0,1.,4.8,0.,4.8,,0,0.,4.8,0.,4.8
1979-03-07 18:17:59.300 ,4,0,,0,2.,4.8,1.,4.8,,0,0.,4.8,0.,4.8
1979-03-07 18:18:04.100 ,4,0,,0,0.,4.8,0.,4.8,,0,0.,4.8,1.,4.8
1979-03-07 18:18:08.900 ,4,0,,0,0.,4.8,0.,4.8,,0,0.,4.8,0.,4.8
1979-03-07 18:18:13.700 ,4,0,,0,0.,4.8,0.,4.8,,0,0.,4.8,0.,4.8
1979-03-07 18:18:18.500 ,4,0,,0,0.,4.8,0.,4.8,,0,0.,4.8,0.,4.8
1979-03-07 18:18:23.300 ,5,0,,0,0.,4.8,0.,4.8,,0,0.,4.8,1.,4.8
1979-03-07 18:18:28.100 ,5,0,,0,0.,4.8,0.,4.8,,0,0.,4.8,0.,4.8
1979-03-07 18:18:32.900 ,5,0,,0,0.,4.8,0.,4.8,,0,0.,4.8,2.,4.8
1979-03-07 18:18:37.700 ,5,0,,0,0.,4.8,0.,4.8,,0,0.,4.8,0.,4.8
1979-03-07 18:18:42.500 ,5,0,,0,0.,4.8,0.,4.8,,0,0.,4.8,1.,4.8
1979-03-07 18:18:47.300 ,6,0,,0,1.,4.8,0.,4.8,,0,0.,4.8,0.,4.8
1979-03-07 18:18:52.100 ,6,0,,0,1.,4.8,0.,4.8,,0,0.,4.8,0.,4.8
1979-03-07 18:18:56.900 ,6,0,,0,1.,4.8,0.,4.8,,0,0.,4.8,0.,4.8
1979-03-07 18:19:01.700 ,6,0,,0,0.,4.8,0.,4.8,,0,0.,4.8,0.,4.8
1979-03-07 18:19:06.500 ,6,0,,0,0.,4.8,0.,4.8,,0,0.,4.8,0.,4.8
1979-03-07 18:19:11.300 ,7,0,,0,0.,4.8,0.,4.8,,0,0.,4.8,0.,4.8
1979-03-07 18:19:16.100 ,7,0,,0,0.,4.8,0.,4.8,,0,0.,4.8,0.,4.8
1979-03-07 18:19:20.900 ,7,0,,0,0.,4.8,0.,4.8,,0,0.,4.8,0.,4.8
1979-03-07 18:19:25.700 ,7,0,,0,5.,4.8,0.,4.8,,0,0.,4.8,0.,4.8
1979-03-07 18:19:30.500 ,7,0,,0,4.,4.8,0.,4.8,,0,0.,4.8,0.,4.8
1979-03-07 18:19:35.300 ,7,0,,0,3.,4.8,0.,4.8,,0,0.,4.8,0.,4.8
1979-03-07 18:19:40.100 ,7,0,,0,6.,4.8,0.,4.8,,0,0.,4.8,0.,4.8
1979-03-07 18:19:44.900 ,7,0,,0,6.,4.8,0.,4.8,,0,0.,4.8,0.,4.8
1979-03-07 18:19:49.700 ,7,0,,0,0.,4.8,0.,4.8,,0,0.,4.8,0.,4.8
1979-03-07 18:19:54.500 ,7,0,,0,0.,4.8,0.,4.8,,0,0.,4.8,0.,4.8
1979-03-07 18:19:59.300 ,6,0,,0,0.,4.8,0.,4.8,,0,0.,4.8,0.,4.8
1979-03-07 18:20:04.100 ,6,0,,0,0.,4.8,0.,4.8,,0,0.,4.8,0.,4.8
1979-03-07 18:20:08.900 ,6,0,,0,0.,4.8,0.,4.8,,0,0.,4.8,0.,4.8
1979-03-07 18:20:13.700 ,6,0,,0,0.,4.8,0.,4.8,,0,0.,4.8,0.,4.8
1979-03-07 18:20:18.500 ,6,0,,0,1.,4.8,1.,4.8,,0,0.,4.8,1.,4.8
1979-03-07 18:20:23.300 ,5,0,,0,0.,4.8,0.,4.8,,0,0.,4.8,0.,4.8
1979-03-07 18:20:28.100 ,5,0,,0,0.,4.8,0.,4.8,,0,0.,4.8,1.,4.8
1979-03-07 18:20:32.900 ,5,0,,0,0.,4.8,0.,4.8,,0,0.,4.8,1.,4.8
1979-03-07 18:20:37.700 ,5,0,,0,0.,4.8,0.,4.8,,0,0.,4.8,3.,4.8
1979-03-07 18:20:42.500 ,5,0,,0,0.,4.8,0.,4.8,,0,0.,4.8,0.,4.8
1979-03-07 18:20:47.300 ,4,0,,0,0.,4.8,0.,4.8,,0,0.,4.8,0.,4.8
1979-03-07 18:20:52.100 ,4,0,,0,0.,4.8,0.,4.8,,0,0.,4.8,0.,4.8
1979-03-07 18:20:56.900 ,4,0,,0,0.,4.8,0.,4.8,,0,0.,4.8,2.,4.8
1979-03-07 18:21:01.700 ,4,0,,0,2.,4.8,0.,4.8,,0,0.,4.8,0.,4.8
1979-03-07 18:21:06.500 ,4,0,,0,2.,4.8,0.,4.8,,0,0.,4.8,1.,4.8
1979-03-07 18:21:11.300 ,3,0,,0,0.,4.8,0.,4.8,,0,0.,4.8,2.,4.8
1979-03-07 18:21:16.100 ,3,0,,0,0.,4.8,0.,4.8,,0,0.,4.8,0.,4.8
1979-03-07 18:21:20.900 ,3,0,,0,3.,4.8,0.,4.8,,0,0.,4.8,0.,4.8
1979-03-07 18:21:25.700 ,3,0,,0,0.,4.8,0.,4.8,,0,0.,4.8,0.,4.8
1979-03-07 18:21:30.500 ,3,0,,0,0.,4.8,0.,4.8,,0,0.,4.8,1.,4.8
1979-03-07 18:21:35.300 ,2,0,,0,0.,4.8,0.,4.8,,0,0.,4.8,0.,4.8
1979-03-07 18:21:40.100 ,2,0,,0,0.,4.8,0.,4.8,,0,0.,4.8,1.,4.8
1979-03-07 18:21:44.900 ,2,0,,0,0.,4.8,0.,4.8,,0,0.,4.8,1.,4.8
1979-03-07 18:21:49.700 ,2,0,,0,0.,4.8,0.,4.8,,0,0.,4.8,0.,4.8
1979-03-07 18:21:54.500 ,2,0,,0,1.,4.8,0.,4.8,,0,0.,4.8,2.,4.8
1979-03-07 18:21:59.300 ,1,0,,0,1.,4.8,0.,4.8,,0,0.,4.8,1.,4.8
1979-03-07 18:22:04.100 ,1,0,,0,1.,4.8,0.,4.8,,0,0.,4.8,1.,4.8
1979-03-07 18:22:08.900 ,1,0,,0,0.,4.8,0.,4.8,,0,0.,4.8,0.,4.8
1979-03-07 18:22:13.700 ,1,0,,0,0.,4.8,0.,4.8,,0,0.,4.8,0.,4.8
1979-03-07 18:22:18.500 ,1,0,,0,0.,4.8,0.,4.8,,0,0.,4.8,0.,4.8
1979-03-07 18:22:23.300 ,0,0,,0,0.,4.8,0.,4.8,,0,0.,4.8,0.,4.8
1979-03-07 18:22:28.100 ,0,0,,0,0.,4.8,0.,4.8,,0,0.,4.8,0.,4.8
1979-03-07 18:22:32.900 ,0,0,,0,0.,4.8,0.,4.8,,0,0.,4.8,1.,4.8
1979-03-07 18:22:37.700 ,0,0,,0,2.,4.8,0.,4.8,,0,0.,4.8,1.,4.8
1979-03-07 18:22:42.500 ,0,0,,0,0.,4.8,0.,4.8,,0,0.,4.8,0.,4.8
1979-03-07 18:22:47.300 ,0,0,,0,2.,4.8,0.,4.8,,0,0.,4.8,0.,4.8
1979-03-07 18:22:52.100 ,0,0,,0,1.,4.8,0.,4.8,,0,0.,4.8,0.,4.8
1979-03-07 18:22:56.900 ,0,0,,0,1.,4.8,0.,4.8,,0,0.,4.8,0.,4.8
1979-03-07 18:23:01.700 ,0,0,,0,0.,4.8,0.,4.8,,0,0.,4.8,0.,4.8
1979-03-07 18:23:06.500 ,0,0,,0,0.,4.8,0.,4.8,,0,0.,4.8,0.,4.8
1979-03-07 18:23:11.300 ,1,0,,0,0.,4.8,0.,4.8,,0,0.,4.8,0.,4.8
1979-03-07 18:23:16.100 ,1,0,,0,0.,4.8,0.,4.8,,0,0.,4.8,0.,4.8
1979-03-07 18:23:20.900 ,1,0,,0,0.,4.8,0.,4.8,,0,0.,4.8,0.,4.8
1979-03-07 18:23:25.700 ,1,0,,0,2.,4.8,1.,4.8,,0,0.,4.8,0.,4.8
1979-03-07 18:23:30.500 ,1,0,,0,1.,4.8,0.,4.8,,0,0.,4.8,1.,4.8
1979-03-07 18:23:35.300 ,2,0,,0,0.,4.8,0.,4.8,,0,0.,4.8,0.,4.8
1979-03-07 18:23:40.100 ,2,0,,0,1.,4.8,0.,4.8,,0,0.,4.8,0.,4.8
1979-03-07 18:23:44.900 ,2,0,,0,2.,4.8,0.,4.8,,0,0.,4.8,0.,4.8
1979-03-07 18:23:49.700 ,2,0,,0,0.,4.8,0.,4.8,,0,0.,4.8,0.,4.8
1979-03-07 18:23:54.500 ,2,0,,0,0.,4.8,0.,4.8,,0,0.,4.8,0.,4.8
1979-03-07 18:23:59.300 ,3,0,,0,0.,4.8,0.,4.8,,0,0.,4.8,0.,4.8
1979-03-07 18:24:04.100 ,3,0,,0,0.,4.8,0.,4.8,,0,0.,4.8,0.,4.8
1979-03-07 18:24:08.900 ,3,0,,0,0.,4.8,0.,4.8,,0,0.,4.8,0.,4.8
1979-03-07 18:24:13.700 ,3,0,,0,0.,4.8,0.,4.8,,0,0.,4.8,1.,4.8
1979-03-07 18:24:18.500 ,3,0,,0,2.,4.8,0.,4.8,,0,0.,4.8,0.,4.8
1979-03-07 18:24:23.300 ,0,0,,0,1.,4.8,0.,4.8,,0,0.,4.8,0.,4.8
1979-03-07 18:24:28.100 ,0,0,,0,2.,4.8,0.,4.8,,0,0.,4.8,1.,4.8
1979-03-07 18:24:32.900 ,0,0,,0,3.,4.8,1.,4.8,,0,0.,4.8,1.,4.8
1979-03-07 18:24:37.700 ,0,0,,0,1.,4.8,0.,4.8,,0,0.,4.8,0.,4.8
1979-03-07 18:24:42.500 ,0,0,,0,0.,4.8,0.,4.8,,0,0.,4.8,3.,4.8
1979-03-07 18:24:47.300 ,0,0,,0,0.,4.8,0.,4.8,,0,0.,4.8,0.,4.8
1979-03-07 18:24:52.100 ,0,0,,0,0.,4.8,0.,4.8,,0,0.,4.8,2.,4.8
1979-03-07 18:24:56.900 ,0,0,,0,0.,4.8,0.,4.8,,0,0.,4.8,1.,4.8
1979-03-07 18:25:01.700 ,0,0,,0,3.,4.8,1.,4.8,,0,0.,4.8,1.,4.8
1979-03-07 18:25:06.500 ,0,0,,0,2.,4.8,0.,4.8,,0,0.,4.8,1.,4.8
1979-03-07 18:25:11.300 ,6,0,,0,3.,4.8,0.,4.8,,0,0.,4.8,0.,4.8
1979-03-07 18:25:16.100 ,6,0,,0,4.,4.8,0.,4.8,,0,0.,4.8,1.,4.8
1979-03-07 18:25:20.900 ,6,0,,0,2.,4.8,0.,4.8,,0,0.,4.8,0.,4.8
1979-03-07 18:25:25.700 ,6,0,,0,0.,4.8,0.,4.8,,0,0.,4.8,1.,4.8
1979-03-07 18:25:30.500 ,6,0,,0,0.,4.8,0.,4.8,,0,0.,4.8,0.,4.8
1979-03-07 18:25:35.310 ,7,0,,0,0.,4.8,0.,4.8,,0,0.,4.8,1.,4.8
1979-03-07 18:25:40.110 ,7,0,,0,0.,4.8,0.,4.8,,0,0.,4.8,0.,4.8
1979-03-07 18:25:44.910 ,7,0,,0,0.,4.8,0.,4.8,,0,0.,4.8,0.,4.8
1979-03-07 18:25:49.710 ,7,0,,0,6.,4.8,0.,4.8,,0,0.,4.8,0.,4.8
1979-03-07 18:25:54.510 ,7,0,,0,8.,4.8,0.,4.8,,0,0.,4.8,0.,4.8
1979-03-07 18:25:59.310 ,7,0,,0,4.,4.8,0.,4.8,,0,0.,4.8,0.,4.8
1979-03-07 18:26:04.110 ,7,0,,0,8.,4.8,0.,4.8,,0,0.,4.8,0.,4.8
1979-03-07 18:26:08.910 ,7,0,,0,4.,4.8,0.,4.8,,0,0.,4.8,0.,4.8
1979-03-07 18:26:13.710 ,7,0,,0,0.,4.8,0.,4.8,,0,0.,4.8,0.,4.8
1979-03-07 18:26:18.510 ,7,0,,0,0.,4.8,0.,4.8,,0,0.,4.8,0.,4.8
1979-03-07 18:26:23.310 ,6,0,,0,0.,4.8,0.,4.8,,0,0.,4.8,0.,4.8
1979-03-07 18:26:28.110 ,6,0,,0,0.,4.8,0.,4.8,,0,0.,4.8,0.,4.8
1979-03-07 18:26:32.910 ,6,0,,0,0.,4.8,0.,4.8,,0,0.,4.8,0.,4.8
1979-03-07 18:26:37.710 ,6,0,,0,0.,4.8,0.,4.8,,0,0.,4.8,0.,4.8
1979-03-07 18:26:42.510 ,6,0,,0,0.,4.8,0.,4.8,,0,0.,4.8,0.,4.8
1979-03-07 18:26:47.310 ,5,0,,0,1.,4.8,0.,4.8,,0,0.,4.8,0.,4.8
1979-03-07 18:26:52.110 ,5,0,,0,2.,4.8,0.,4.8,,0,0.,4.8,0.,4.8
1979-03-07 18:26:56.910 ,5,0,,0,3.,4.8,1.,4.8,,0,0.,4.8,1.,4.8
1979-03-07 18:27:01.710 ,5,0,,0,0.,4.8,0.,4.8,,0,0.,4.8,1.,4.8
1979-03-07 18:27:06.510 ,5,0,,0,0.,4.8,0.,4.8,,0,0.,4.8,2.,4.8
1979-03-07 18:27:11.310 ,4,0,,0,0.,4.8,0.,4.8,,0,0.,4.8,1.,4.8
1979-03-07 18:27:16.110 ,4,0,,0,0.,4.8,0.,4.8,,0,0.,4.8,1.,4.8
1979-03-07 18:27:20.910 ,4,0,,0,0.,4.8,0.,4.8,,0,0.,4.8,1.,4.8
1979-03-07 18:27:25.710 ,4,0,,0,2.,4.8,0.,4.8,,0,0.,4.8,4.,4.8
1979-03-07 18:27:30.510 ,4,0,,0,4.,4.8,0.,4.8,,0,0.,4.8,1.,4.8
1979-03-07 18:27:35.310 ,3,0,,0,4.,4.8,0.,4.8,,0,0.,4.8,1.,4.8
1979-03-07 18:27:40.110 ,3,0,,0,2.,4.8,0.,4.8,,0,0.,4.8,2.,4.8
1979-03-07 18:27:44.910 ,3,0,,0,4.,4.8,0.,4.8,,0,0.,4.8,0.,4.8
1979-03-07 18:27:49.710 ,3,0,,0,0.,4.8,0.,4.8,,0,0.,4.8,3.,4.8
1979-03-07 18:27:54.510 ,3,0,,0,0.,4.8,0.,4.8,,0,0.,4.8,1.,4.8
1979-03-07 18:27:59.310 ,2,0,,0,0.,4.8,0.,4.8,,0,0.,4.8,3.,4.8
1979-03-07 18:28:04.110 ,2,0,,0,0.,4.8,0.,4.8,,0,0.,4.8,1.,4.8
1979-03-07 18:28:08.910 ,2,0,,0,1.,4.8,0.,4.8,,0,0.,4.8,0.,4.8
1979-03-07 18:28:13.710 ,2,0,,0,1.,4.8,1.,4.8,,0,0.,4.8,0.,4.8
1979-03-07 18:28:18.510 ,2,0,,0,3.,4.8,0.,4.8,,0,0.,4.8,1.,4.8
1979-03-07 18:28:23.310 ,1,0,,0,1.,4.8,0.,4.8,,0,0.,4.8,1.,4.8
1979-03-07 18:28:28.110 ,1,0,,0,4.,4.8,0.,4.8,,0,0.,4.8,0.,4.8
1979-03-07 18:28:32.910 ,1,0,,0,1.,4.8,0.,4.8,,0,0.,4.8,0.,4.8
1979-03-07 18:28:37.710 ,1,0,,0,0.,4.8,0.,4.8,,0,0.,4.8,1.,4.8
1979-03-07 18:28:42.510 ,1,0,,0,0.,4.8,0.,4.8,,0,0.,4.8,0.,4.8
1979-03-07 18:28:47.310 ,0,0,,0,0.,4.8,0.,4.8,,0,0.,4.8,0.,4.8
1979-03-07 18:28:52.110 ,0,0,,0,0.,4.8,0.,4.8,,0,0.,4.8,0.,4.8
1979-03-07 18:28:56.910 ,0,0,,0,0.,4.8,0.,4.8,,0,0.,4.8,1.,4.8
1979-03-07 18:29:01.710 ,0,0,,0,0.,4.8,0.,4.8,,0,0.,4.8,0.,4.8
1979-03-07 18:29:06.510 ,0,0,,0,1.,4.8,0.,4.8,,0,0.,4.8,0.,4.8
1979-03-07 18:29:11.310 ,0,0,,0,0.,4.8,0.,4.8,,0,0.,4.8,0.,4.8
1979-03-07 18:29:16.110 ,0,0,,0,1.,4.8,0.,4.8,,0,0.,4.8,3.,4.8
1979-03-07 18:29:20.910 ,0,0,,0,2.,4.8,1.,4.8,,0,0.,4.8,0.,4.8
1979-03-07 18:29:25.710 ,0,0,,0,0.,4.8,0.,4.8,,0,0.,4.8,0.,4.8
1979-03-07 18:29:30.510 ,0,0,,0,0.,4.8,0.,4.8,,0,0.,4.8,1.,4.8
1979-03-07 18:29:35.310 ,1,0,,0,0.,4.8,0.,4.8,,0,0.,4.8,0.,4.8
1979-03-07 18:29:40.110 ,1,0,,0,0.,4.8,0.,4.8,,0,0.,4.8,0.,4.8
1979-03-07 18:29:44.910 ,1,0,,0,1.,4.8,0.,4.8,,0,0.,4.8,0.,4.8
1979-03-07 18:29:49.710 ,1,0,,0,1.,4.8,0.,4.8,,0,0.,4.8,2.,4.8
1979-03-07 18:29:54.510 ,1,0,,0,1.,4.8,0.,4.8,,0,0.,4.8,0.,4.8
1979-03-07 18:29:59.310 ,2,0,,0,1.,4.8,0.,4.8,,0,0.,4.8,0.,4.8
1979-03-07 18:30:04.110 ,2,0,,0,2.,4.8,0.,4.8,,0,0.,4.8,0.,4.8
1979-03-07 18:30:08.910 ,2,0,,0,1.,4.8,0.,4.8,,0,0.,4.8,0.,4.8